Showing default

GRUS-1B, 47934

Orbit data source: Space-Track

GRUS-1B, 47934 is a payload satellite owned by AXELSPACE (JP) in SSO that was launched on Mon, 22 Mar 2021 UTC via a SOYUZ-2-1A launch vehicle from the Tyuratam Missile And Space Complex (TTMTR). Payload-class satellites include a variety of spacecraft equipped with specific instruments for various scientific and technological missions. These include communications satellites like Starlink; space stations such as the ISS; scientific satellites like the Hubble; Earth observation satellites from companies like Planet Labs, Umbra, and HawkEye 360; GPS; miniature CubeSats for education and research; and military/defense satellites.

Loading next visibility...
Identifier
47934, 2021-022C
Orbit
SSO
Country
Flag of JPJP / JPN
Related business
Manufacturer
AXELSPACE
Mission
Operational Commercial Imaging
Bus & Motor
GRUS, Unknown motor
Mass
80 kg wet, 80 kg dry
Launch date (UTC)
2021-03-22 (5 years ago)
Launch vehicle
SOYUZ-2-1A
Launch site
Tyuratam Missile And Space Complex (TTMTR)
Object type
Payload
Rocket body
Debris
Shape & HBR
Box, 0.3 m
Radar Cross Section
0.375 m², Medium (>0.1 m² and < 1m²)

Expand to show TLE details & history
Last TLE update: 15 hours ago

TLE from 15 hours ago
0 GRUS-1B
1 47934U 21022C   25348.97642471  .00003217  00000-0  27305-3 0  9999
2 47934  97.5628 232.9765 0015411 216.0753 143.9431 14.98518129258307
Epoch: 2025-12-14T23:26Z
TLE epoch observation values (Epoch: 2025-12-14T23:26:03.094Z)
Latitude
-0.00008°
Longitude
157.582°
Altitude
583.197 km
Speed
7.564 km/s
True Right ascension
15h 31m 54s
True Declination
0° 00' 00"
Sunlit
Object was in daylight at epoch
Visualization orbit readout
Latitude
Unknown
Longitude
Unknown
Altitude
Unknown
Speed
Unknown
Apparent Right ascension
Unknown
Apparent Declination
Unknown
Sunlit
N/A
Visualization observer readout
Local Sidereal Time
13:19:50
Azimuth
Unknown
Elevation
Unknown
Doppler factor
Unknown
Orbital elements
Apogee altitude
579.181 km
Perigee altitude
557.77 km
Semi-major axis
6,946.612 km
Eccentricity
0.00154
Inclination
97.5628°
RAAN
232.9765°
Arg. of periapsis
216.0753°
True anomaly
144.04688°
Mean anomaly
143.9431°
Eccentric anomaly
143.99501°
Mean motion
3.74872 °/min
Orbital period
96.03 mins
BSTAR
0.00027305
Loading maneuver chart data...
Computing Atmospheric mass density...
Loading historical data...
Loading historical data...
Loading historical data...
Loading historical data...
Loading historical data...
Loading historical data...
Loading historical data...

Documentation

Showing up to 5 results
|